{"data":{"norad_id":26575,"intl_designator":"2000-065A","name":"USA 153","alt_names":[],"object_type":"PAYLOAD","status":"ACTIVE","operator":null,"country":"US","launch_date":"2000-10-20","launch_site_code":"AFETR","launch_vehicle":null,"mission":null,"orbit_class":"UNKNOWN","rcs_meters":null,"size_class":null,"mass_kg":null,"dimensions":null,"purposes":["comms"],"wikipedia_slug":null,"has_3d_model":false,"image_url":null,"decayed_at":null,"tle_current":{"epoch":"2026-09-19T17:41:04.309152Z","epoch_age_seconds":77130,"freshness":"FRESH","line1":"1 26575U 00065A   26262.73685543 -.00000325  00000+0  00000+0 0  9994","line2":"2 26575  11.7861  34.6113 0001579 137.9286 225.7661  1.00268465 33880","mean_motion":1.00268465,"eccentricity":0.0001579,"inclination_deg":11.7861,"raan_deg":34.6113,"arg_perigee_deg":137.9286,"mean_anomaly_deg":225.7661,"bstar":0,"rev_number":3388,"period_min":1436.1444547894,"perigee_km":35780.86774525,"apogee_km":35794.183661532,"semimajor_km":42165.662703391,"source":"CELESTRAK","updated_at":"2026-09-20T09:00:35.118437Z"}}}